19P/Borrelly (2022)

Japanese version
Home page
Updated on November 3, 2020

---------------------------------------------------------------------

* Profile

* Orbital Elements

Epoch 2022 Jan. 21.0 TT = JDT 2459600.5
T 2022 Feb. 1.81661 TT                                  MPCW
q   1.3063015            (2000.0)            P               Q
n   0.14399462     Peri.  351.91409     +0.38683416     -0.79274688
a   3.6049995      Node    74.24751     +0.87107963     +0.14649023
e   0.6376417      Incl.   29.30492     +0.30262124     +0.59168657
P   6.84
From 1912 observations 1994 June 12-2015 Feb. 11, mean residual 0".7.
     Nongravitational parameters A1 = +0.21, A2 = -0.0380.

* Finding Charts

* Magnitudes Graph

        H = 15.0  G = 0.15               [    ,-310]  (             - 2021 Mar. 28)
        m1 = 5.5 + 5 log d + 25.0 log r  [-310,  67]  (2021 Mar. 28 - 2022 Apr.  9)
        m1 = 7.4 + 5 log d + 15.0 log r  [  67,    ]  (2022 Apr.  9 -             )

---------------------------------------------------------------------

The orbital elements are published on M.P.E.C. 2015-E14.
The charts are made with StellaNavigator Ver.10 (AstroArts).
The magnitudes graphs are made with Comet for Windows.

---------------------------------------------------------------------

Copyright(C) Seiichi Yoshida (comet@aerith.net). All rights reserved.